HINODE (SOLAR-B) (29479 NORAD) Tracking and Keplerian Element Data

This shows tracking and keplerian element data for the satellite.

Feedback or suggestion? Click here.




ElementValue
Catalog29479
NameHINODE (SOLAR-B)
Epoch Orbit63132
Epoch Day198.93718101
Epoch Year2018
RAAN205.6402
Inclination98.1686
Eccentricity0.0018287
Argument of Perigee55.8491
Mean Anonmoly304.4443
Mean Motion14.64930031
Decay Rate1.8E-07
L11 29479U 06041A 18198.93718101 .00000018 00000-0 12432-4 0 9994
L22 29479 98.1686 205.6402 0018287 55.8491 304.4443 14.64930031631326

Live tracking and technical data element details for HINODE (SOLAR-B) (NORAD 29479). HINODE (SOLAR-B) can be tracked NOW for your location showing map with azimuth and elevation plus other details from your city location.

Track the satellite on the map from your city or location and see movement details for azimuth, elevation, latitude, longitude, range, height, and movement on the map or in text.







IsCatalogInMostPopularTable: catalog: 29479, numindb: 37
Update: records affected: 1



GetName: 29479 HINODE (SOLAR-B)

Hit Count: updated at: Thu, 19 Jul 2018 03:30:13 GMT